Domov               UVHVVR             MKGP            O straneh              
ZDRAVSTVENO VARSTVO RASTLIN
  MREŽA AGROMET. POSTAJ
 ► PROGNOSTIČNA OBVESTILA
AGROMETEOROLOŠKI PODATKI -
ARSO
OBVLADOVANJE TVEGANJ ZARADI
NEUGODNIH VREMENSKIH RAZMER
  ► NARAVNE NESREČE
  ► SUŠA/MOČA
  ► NAMAKANJE
  ► ŽLED (gozdarstvo)
KARTOGRAFSKI PRIKAZI
SPLETNE POVEZAVE
PROJEKTI IN PUBLIKACIJE

AGROMETEOROLOŠKA MREŽA: VREMENSKE POSTAJE IN FENOLOŠKA OPAZOVANJA

Pregled podatkov za lokacijo Gabrovka, meteorološka postaja 38756

Pregled senzorjev na lokaciji

ID Ime Zadnja
vrednost
Datum
zadnje
spremembe
Tip
senzorja
2042 Omočenost lista (U) 0 U 19.10.2017 16:00 A730WET
2045 Padavine 0.2 mm (mm) 0 mm 19.10.2017 16:00 Rain-O-Matic
2064 Temperatura 2 m ( °C) 20,49 °C 19.10.2017 16:00 50YA
2065 Relativna vlaga 2 m (% RH) 46,84 % RH 19.10.2017 16:00 50YA

Pregled podatkov zadnjih 24 ur

Zap.
št.
Datum in čas Gabrovka
Omočenost
lista
Padavine
0.2
mm
Relativna
vlaga
2
m
Temperatura
2
m
0 19.10.2017 15:00 0 0 46,84 20,49
1 19.10.2017 14:30 0 0 46,28 21,07
2 19.10.2017 14:00 0 0 44,54 21,25
3 19.10.2017 13:30 0 0 44,79 21,54
4 19.10.2017 13:00 0 0 45,91 21,29
5 19.10.2017 12:30 0 0 49,18 20,51
6 19.10.2017 12:00 0 0 51,36 19,88
7 19.10.2017 11:30 0 0 53,65 19,07
8 19.10.2017 11:00 0 0 55,26 18,1
9 19.10.2017 10:30 0 0 56,02 17,63
10 19.10.2017 10:00 0 0 56,97 17,12
11 19.10.2017 09:30 0 0 59,24 16,07
12 19.10.2017 09:00 0 0 60,29 15,58
13 19.10.2017 08:30 0 0 62,17 14,95
14 19.10.2017 08:00 0 0 63,91 13,87
15 19.10.2017 07:30 0 0 72,36 12,11
16 19.10.2017 07:00 0 0 77,46 10,89
17 19.10.2017 06:30 0 0 82,74 9,91
18 19.10.2017 06:00 0 0 84,59 9,82
19 19.10.2017 05:30 0 0 84,47 10,04
20 19.10.2017 05:00 0 0 85,1 10,16
21 19.10.2017 04:30 0 0 83,37 10,57
22 19.10.2017 04:00 0 0 83,13 10,82
23 19.10.2017 03:30 0 0 81,32 11,28
24 19.10.2017 03:00 0 0 80,76 11,7
25 19.10.2017 02:30 0 0 82,22 11,87
26 19.10.2017 02:00 0 0 83,74 11,77
27 19.10.2017 01:30 0 0 84,18 11,97
28 19.10.2017 01:00 0 0 82,52 12,53
29 19.10.2017 00:30 0 0 82,49 12,77
30 19.10.2017 00:00 0 0 82,81 12,97
31 18.10.2017 23:30 0 0 83,57 13,06
32 18.10.2017 23:00 0 0 83 13,26
33 18.10.2017 22:30 0 0 82,71 13,41
34 18.10.2017 22:00 0 0 81,34 13,55
35 18.10.2017 21:30 0 0 80,83 13,77
36 18.10.2017 21:00 0 0 78,95 13,94
37 18.10.2017 20:30 0 0 75,85 14,26
38 18.10.2017 20:00 0 0 73,75 14,38
39 18.10.2017 19:30 0 0 70,74 14,65
40 18.10.2017 19:00 0 0 67,01 15,12
41 18.10.2017 18:30 0 0 64,49 15,43
42 18.10.2017 18:00 0 0 64,42 15,51
43 18.10.2017 17:30 0 0 63,32 16
44 18.10.2017 17:00 0 0 60,51 16,9
45 18.10.2017 16:30 0 0 57,12 17,83
© 2011 Ministrstvo za kmetijstvo, gozdarstvo in prehrano. Vse pravice pridržane.